Simultaneous Nadir Overpasses (SNOs) Predictions

Prediction of SNOs between LANDSAT-8 and METOP-B Satellite Orbit:

Table of predicted SNOs for the next 14.0 days since TLE Epoch: 4/16/2014
Index Date (LANDSAT-8) Time (LANDSAT-8) Lat,Lon (LANDSAT-8) SZA (LANDSAT-8 ) Date (METOP-B) Time (METOP-B) Lat,Lon (METOP-B) SZA (METOP-B ) Distance(km) Time Diff (sec)
1 04/17/2014 12:58:57 -81.06,-156.47 107.55 04/17/2014 12:58:13 -81.05,-156.64 107.59 2.99 44
2 04/17/2014 13:48:22 81.08, 11.55 72.50 04/17/2014 13:48:51 81.08, 11.42 72.50 2.23 29
3 04/20/2014 08:33:06 -81.06, -90.06 108.51 04/20/2014 08:32:32 -81.06, -90.17 108.54 2.04 34
4 04/20/2014 09:22:30 81.10, 78.29 71.59 04/20/2014 09:23:09 81.10, 78.23 71.59 1.40 39
5 04/23/2014 04:07:15 -81.06, -23.52 109.43 04/23/2014 04:06:51 -81.07, -23.39 109.42 2.38 24
6 04/23/2014 04:56:39 81.11, 144.81 70.66 04/23/2014 04:57:28 81.11, 144.99 70.71 3.08 49
7 04/25/2014 23:41:23 -81.08, 43.14 110.31 04/25/2014 23:41:11 -81.07, 42.97 110.34 3.21 12
8 04/26/2014 00:30:48 81.10,-148.90 69.73 04/26/2014 00:31:49 81.09,-149.04 69.74 2.43 61
9 04/28/2014 18:26:37 80.08, -68.84 67.00 04/28/2014 18:25:24 80.34, -70.11 67.09 37.34 73
10 04/28/2014 19:15:31 -81.07, 109.57 111.19 04/28/2014 19:15:30 -81.08, 109.64 111.18 1.23 1




NCC Satellite Simultaneous Nadir Overpasses (SNOs) Prediction Service
